Date String (YYYY-MM-DD hh:mm:ss) UTC,Instrument flags,Ambient pressure (hPa),Sample flow (lpm),Bypass flow (lpm),Sample temperature (°C),Ambient temperature (°C),ASC tube jacket temperature (°C),LED temperature (°C),Box temperature (°C),Sample RH (%),Span deviation,Mass concentration (μg/m³),Mass concentration (μg/m³),Mass concentration (μg/m³)
DateTimeUTC,F1_M11,P_M11,Q1_M11,Q2_M11,T1_M11,T2_M11,T3_M11,T4_M11,T5_M11,U1_M11,ZSPAN_M11,X0_M11,X2_M11,X1_M11
2021-09-03 12:00:00,,0828.6,5.00,0.00,30.1,29.1,00.0,39.1,31.9,28.3,0001.6,0020.16,0016.62,0016.00
2021-09-03 12:01:00,,0828.8,4.99,0.00,30.1,29.2,00.0,39.2,31.9,28.3,0001.5,0020.14,0016.60,0015.97
2021-09-03 12:02:00,,0828.9,5.00,0.00,30.2,29.2,00.0,39.2,31.9,28.3,0001.5,0020.17,0016.61,0015.97
2021-09-03 12:03:00,,0829.3,5.00,0.00,30.2,29.2,00.0,39.2,31.9,28.3,0001.3,0020.25,0016.67,0016.01
2021-09-03 12:04:00,,0829.3,5.00,0.00,30.2,29.2,00.0,39.2,31.9,28.3,0001.2,0020.43,0016.72,0016.06
2021-09-03 12:05:00,,0828.9,5.00,0.00,30.2,29.3,00.0,39.2,32.0,28.2,0001.1,0020.46,0016.73,0016.08
2021-09-03 12:06:00,,0828.9,4.99,0.00,30.2,29.3,00.0,39.2,32.0,28.1,0001.2,0020.10,0016.65,0016.08
2021-09-03 12:07:00,,0828.7,4.99,0.00,30.2,29.3,00.0,39.3,32.0,28.1,0001.3,0019.90,0016.60,0016.07
2021-09-03 12:08:00,,0828.7,5.00,0.00,30.3,29.3,00.0,39.3,32.0,28.1,0001.2,0019.67,0016.59,0016.06
2021-09-03 12:09:00,,0828.8,5.00,0.00,30.3,29.4,00.0,39.3,32.0,28.1,0001.3,0019.78,0016.62,0016.09
2021-09-03 12:10:00,,0828.8,4.99,0.00,30.3,29.3,00.0,39.3,32.0,28.0,0001.4,0020.04,0016.63,0016.10
2021-09-03 12:11:00,,0829.1,5.00,0.00,30.2,27.7,00.0,39.3,31.6,28.1,0001.6,0020.16,0016.68,0016.11
2021-09-03 12:12:00,,0829.1,4.99,0.00,30.1,26.5,00.0,39.3,31.3,28.3,0001.8,0020.21,0016.73,0016.16
2021-09-03 12:13:00,,0829.2,5.00,0.00,30.0,26.5,00.0,39.2,31.3,28.6,0001.9,0020.25,0016.77,0016.20
2021-09-03 12:14:00,,0829.1,5.00,0.00,29.9,26.9,00.0,39.2,31.3,28.6,0002.0,0020.46,0016.77,0016.20
2021-09-03 12:15:00,,0829.2,5.00,0.00,29.8,27.3,00.0,39.1,31.4,28.7,0002.0,0020.82,0016.70,0016.16
2021-09-03 12:16:00,,0829.2,5.01,0.00,29.8,27.7,00.0,39.1,31.4,28.8,0002.1,0020.72,0016.68,0016.13
2021-09-03 12:17:00,,0829.0,5.00,0.00,29.8,28.0,00.0,39.1,31.4,28.8,0002.1,0020.67,0016.67,0016.13
2021-09-03 12:18:00,,0828.8,4.99,0.00,29.8,28.2,00.0,39.1,31.5,28.9,0002.1,0020.70,0016.68,0016.14
2021-09-03 12:19:00,,0828.7,5.00,0.00,29.8,28.3,00.0,39.1,31.5,28.8,0002.0,0020.69,0016.72,0016.14
2021-09-03 12:20:00,,0828.7,5.00,0.00,29.9,28.5,00.0,39.0,31.6,28.7,0002.0,0020.35,0016.71,0016.13
2021-09-03 12:21:00,,0828.7,4.99,0.00,29.9,28.6,00.0,39.0,31.6,28.7,0002.1,0020.49,0016.72,0016.14
2021-09-03 12:22:00,,0828.8,5.00,0.00,29.9,28.7,00.0,39.0,31.7,28.7,0002.0,0020.68,0016.70,0016.13
2021-09-03 12:23:00,,0829.0,5.00,0.00,29.9,28.8,00.0,39.0,31.7,28.6,0001.9,0020.64,0016.65,0016.10
2021-09-03 12:24:00,,0829.1,5.00,0.00,29.9,28.8,00.0,39.0,31.7,28.6,0001.9,0020.61,0016.64,0016.09
2021-09-03 12:25:00,,0829.2,4.99,0.00,30.0,28.9,00.0,39.1,31.7,28.5,0002.0,0020.38,0016.66,0016.11
2021-09-03 12:26:00,,0829.2,5.01,0.00,30.0,29.0,00.0,39.1,31.7,28.5,0001.9,0020.04,0016.72,0016.13
2021-09-03 12:27:00,,0829.1,5.01,0.00,30.0,29.0,00.0,39.1,31.8,28.5,0001.7,0020.06,0016.73,0016.15
2021-09-03 12:28:00,,0828.9,4.99,0.00,30.0,29.1,00.0,39.1,31.8,28.4,0001.7,0020.09,0016.76,0016.15
2021-09-03 12:29:00,,0828.8,5.00,0.00,30.1,29.1,00.0,39.1,31.9,28.4,0001.7,0020.28,0016.81,0016.17
2021-09-03 12:30:00,,0828.8,5.01,0.00,30.1,29.2,00.0,39.1,31.9,28.4,0001.7,0020.14,0016.80,0016.22
2021-09-03 12:31:00,,0828.9,4.99,0.00,30.1,29.2,00.0,39.1,31.9,28.3,0001.6,0020.27,0016.83,0016.26
2021-09-03 12:32:00,,0828.8,4.99,0.00,30.1,29.2,00.0,39.2,31.9,28.9,0001.6,0020.07,0016.83,0016.25
2021-09-03 12:33:00,,0828.8,5.01,0.00,30.1,29.2,00.0,39.2,31.9,28.7,0001.7,0019.92,0016.87,0016.25
2021-09-03 12:34:00,,0828.8,5.00,0.00,30.1,29.3,00.0,39.2,31.9,28.5,0001.7,0020.54,0016.91,0016.26
2021-09-03 12:35:00,,0828.9,4.99,0.00,30.2,29.3,00.0,39.2,32.0,28.6,0001.8,0021.18,0016.96,0016.29
2021-09-03 12:36:00,,0828.8,5.00,0.00,30.2,29.3,00.0,39.2,32.0,28.6,0001.6,0021.65,0016.97,0016.28
2021-09-03 12:37:00,,0828.9,5.00,0.00,30.2,29.4,00.0,39.2,32.0,28.5,0001.7,0022.15,0016.98,0016.30
2021-09-03 12:38:00,,0828.9,5.01,0.00,30.2,29.4,00.0,39.2,32.0,28.5,0001.7,0022.36,0017.02,0016.33
2021-09-03 12:39:00,,0828.9,5.00,0.00,30.2,29.4,00.0,39.3,32.0,28.7,0001.5,0022.44,0017.01,0016.33
2021-09-03 12:40:00,,0828.8,4.99,0.00,30.3,29.3,00.0,39.3,32.0,28.7,0001.7,0022.28,0016.97,0016.31
2021-09-03 12:41:00,,0828.9,5.00,0.00,30.2,27.6,00.0,39.3,31.5,28.6,0001.9,0022.30,0016.97,0016.30
2021-09-03 12:42:00,,0828.8,5.00,0.00,30.0,26.6,00.0,39.2,31.3,28.8,0001.9,0022.22,0016.98,0016.28
2021-09-03 12:43:00,,0828.8,5.02,0.00,29.9,26.7,00.0,39.2,31.3,28.9,0001.7,0022.11,0016.99,0016.31
2021-09-03 12:44:00,,0828.9,5.00,0.00,29.9,27.1,00.0,39.2,31.4,28.9,0001.7,0021.93,0016.99,0016.33
2021-09-03 12:45:00,,0828.9,5.00,0.00,29.8,27.5,00.0,39.1,31.4,28.9,0001.7,0021.40,0017.03,0016.38
2021-09-03 12:46:00,,0828.9,4.99,0.00,29.8,27.8,00.0,39.1,31.5,29.0,0001.7,0020.79,0017.02,0016.40
2021-09-03 12:47:00,,0828.9,5.01,0.00,29.8,28.1,00.0,39.1,31.5,29.0,0001.9,0020.50,0016.99,0016.40
2021-09-03 12:48:00,,0829.0,4.99,0.00,29.9,28.3,00.0,39.1,31.5,28.9,0002.1,0020.55,0016.98,0016.39
2021-09-03 12:49:00,,0829.0,5.01,0.00,29.9,28.5,00.0,39.0,31.6,28.9,0002.1,0020.66,0017.02,0016.41
2021-09-03 12:50:00,,0829.0,4.99,0.00,29.9,28.6,00.0,39.1,31.6,28.9,0002.2,0021.37,0017.03,0016.43
2021-09-03 12:51:00,,0829.1,4.99,0.00,29.9,28.7,00.0,39.1,31.7,28.8,0002.1,0021.59,0017.07,0016.45
2021-09-03 12:52:00,,0829.0,5.01,0.00,29.9,28.8,00.0,39.1,31.7,28.8,0001.9,0021.67,0017.05,0016.45
2021-09-03 12:53:00,,0829.1,5.00,0.00,30.0,28.9,00.0,39.1,31.7,28.9,0002.0,0021.58,0017.01,0016.44
2021-09-03 12:54:00,,0829.1,5.01,0.00,30.0,28.9,00.0,39.1,31.7,28.8,0002.2,0021.59,0017.01,0016.43
2021-09-03 12:55:00,,0829.1,5.00,0.00,30.0,29.0,00.0,39.1,31.8,28.8,0002.4,0021.75,0017.03,0016.43
2021-09-03 12:56:00,,0829.1,4.99,0.00,30.0,29.0,00.0,39.1,31.8,28.6,0002.3,0021.61,0016.96,0016.39
2021-09-03 12:57:00,,0829.1,5.01,0.00,30.0,29.1,00.0,39.1,31.8,28.6,0002.2,0021.78,0016.96,0016.39
2021-09-03 12:58:00,,0829.1,5.01,0.00,30.1,29.1,00.0,39.1,31.8,28.7,0002.0,0021.77,0016.97,0016.40
2021-09-03 12:59:00,,0829.1,4.99,0.00,30.1,29.2,00.0,39.1,31.9,29.1,0001.7,0021.13,0016.93,0016.39
